Lid_Strength_Index
14 15 14 14 15 15 16 15 13 13 13 12 12 11 11 12 12 12 12 12 12 12
15 15 16 15 15 15 14 13 15 17 17 16 14 13 13 13 13 13 12 13 12 13
16 16 17 18 17 17 16 17 18 15 14 14 14 14 14 14 13 13 13 13 13 13
17 17 19 19 19 19 19 19 16 15 15 14 14 14 15 14 14 13 13 13 13 13
18 19 21 21 20 20 20 18 15 15 15 15 15 14 15 15 14 15 14 13 13 13
21 20 21 21 20 19 19 19 15 15 15 15 15 15 15 14 14 13 13 13 13 13
23 22 21 20 20 19 19 20 18 15 15 15 14 14 15 14 14 14 13 13 13 14
24 23 23 23 23 21 20 20 20 19 19 15 14 14 14 14 14 14 14 14 14 14
24 24 24 23 23 22 22 22 21 16 16 16 15 13 12 13 14 14 14 15 15 15
22 21 21 21 20 22 22 21 21 21 20 16 15 13 12 12 13 14 14 15 15 15
20 20 20 20 21 21 19 16 16 16 17 17 16 13 13 12 13 14 14 14 15 16
20 20 20 20 21 20 19 18 17 15 15 15 15 13 12 12 13 13 14 13 14 14
19 20 21 20 19 18 18 17 16 16 16 16 15 14 13 13 13 14 14 13 13 13
19 20 19 19 19 19 19 18 19 18 17 17 16 16 13 13 14 14 14 14 13 13